{"data":{"norad_id":66777,"intl_designator":"2025-276DR","name":"LUNA-1","alt_names":[],"object_type":"PAYLOAD","status":"ACTIVE","operator":null,"country":"TURK","launch_date":"2025-11-28","launch_site_code":"AFWTR","launch_vehicle":null,"mission":null,"orbit_class":"UNKNOWN","rcs_meters":null,"size_class":null,"mass_kg":null,"dimensions":null,"purposes":[],"wikipedia_slug":null,"has_3d_model":false,"image_url":null,"decayed_at":null,"tle_current":{"epoch":"2026-05-25T04:27:28.145088Z","epoch_age_seconds":49238,"freshness":"FRESH","line1":"1 66777U 25276DR  26145.18574242  .00009572  00000+0  41891-3 0  9994","line2":"2 66777  97.4261 219.7927 0000688 356.4556   3.6676 15.22257824 26966","mean_motion":15.22257824,"eccentricity":6.88e-5,"inclination_deg":97.4261,"raan_deg":219.7927,"arg_perigee_deg":356.4556,"mean_anomaly_deg":3.6676,"bstar":0.00041891,"rev_number":2696,"period_min":94.596327724311,"perigee_km":498.55886991,"apogee_km":499.50516836703,"semimajor_km":6877.1690191385,"source":"CELESTRAK","updated_at":"2026-05-25T13:38:06.479010Z"}}}